(268266) = 2005 OJ8

Discovered at Palomar on 2005-07-26 by NEAT.

Orbit

Orbit type: Main Belt

Note: WebGL enabled browser required.

epoch2023-09-13.0
epoch JD2460200.5
perihelion date2023-02-14.89649
perihelion JD2459990.39649
argument of perihelion (°)139.51433
ascending node (°)173.13618
inclination (°)5.91175
eccentricity0.1256473
perihelion distance (AU)2.0170474
Tisserand w.r.t. Jupiter3.6
ΔV w.r.t. Earth (km/sec)9.0
semimajor axis (AU)2.3069036
mean anomaly (°)59.10075
mean daily motion (°/day)0.28129350
aphelion distance (AU)2.597
period (years)3.5
P-vector [x]0.67793721
P-vector [y]-0.69826277
P-vector [z]-0.22984830
Q-vector [x]0.73501675
Q-vector [y]0.64909230
Q-vector [z]0.19603459
absolute magnitude17.41
phase slope0.15
uncertainty0
referenceMPEC 2024-A158
observations used363
oppositions15
arc length (days)9812
first opposition used1997
last opposition used2024
residual rms (arc-secs)0.65
perturbers coarse indicatorM-v
perturbers precise indicator003Ek
first observation date used1997-03-03.0
last observation date used2024-01-13.0
computer nameMPCLINUX
JD of orbit computation2456670.672016
perihelion JD uncertainty (days)1.4881E-04
argument of perihelion uncertainty (°)7.6091E-05
ascending node uncertainty (°)6.7970E-05
inclination uncertainty (°)8.8055E-06
eccentricity uncertainty 8.2920E-08
perihelion distance uncertainty (AU)1.8475E-07
Minimum Orbit Intersection Distances (in AU)
for orbit epoch: 2460200.5, reference: E2024-AF8
Mercury1.59214
Venus1.2964
Earth1.00702
Mars0.64604
Jupiter2.64591
Saturn6.52546
Uranus15.89
Neptune27.5261

Observations

368 total observations over interval: 1997 03 03.31679 – 2024 01 13.130128
These data are available for download (format description).

Date (UT) J2000 RA J2000 Dec Magn Location Ref
1997 03 03.31679 10 23 53.26 +07 16 51.3 21.2 V 691 – Steward Observatory, Kitt Peak-Spacewatch MPS 149577
1997 03 03.33866 10 23 52.09 +07 17 00.9 20.6 V 691 – Steward Observatory, Kitt Peak-Spacewatch MPS 149577
1997 03 03.36004 10 23 50.80 +07 17 11.8 21.0 V 691 – Steward Observatory, Kitt Peak-Spacewatch MPS 149577
2001 04 14.30733 14 38 45.82 -08 33 19.9 20.8 V 691 – Steward Observatory, Kitt Peak-Spacewatch MPS 149577
2001 04 14.32814 14 38 44.77 -08 33 10.8 21.1 V 691 – Steward Observatory, Kitt Peak-Spacewatch MPS 149577
2001 04 14.34886 14 38 43.75 -08 33 01.4 20.6 V 691 – Steward Observatory, Kitt Peak-Spacewatch MPS 149577
2002 11 02.48200 02 53 06.14 +08 21 43.8 20.7   608 – Haleakala-AMOS MPS 149577
2002 11 02.49262 02 53 05.53 +08 21 40.3 20.9   608 – Haleakala-AMOS MPS 149577
2002 11 02.50439 02 53 04.74 +08 21 35.2 20.9   608 – Haleakala-AMOS MPS 149577
2005 07 05.43823 20 57 10.45 -07 57 37.9 20.0   644 – Palomar Mountain/NEAT MPS 139376
2005 07 05.44900 20 57 10.14 -07 57 39.0 19.9   644 – Palomar Mountain/NEAT MPS 139376
2005 07 05.46053 20 57 09.81 -07 57 40.1 19.9   644 – Palomar Mountain/NEAT MPS 139376
2005 07 26.22548 20 43 08.45 -09 18 22.6 19.9   644 – Palomar Mountain/NEAT MPS 138926
2005 07 26.24221 20 43 07.57 -09 18 28.7 19.7   644 – Palomar Mountain/NEAT MPS 138926
2005 07 26.27238 20 43 05.95 -09 18 39.7 19.4   644 – Palomar Mountain/NEAT MPS 138926
2005 08 01.86631 20 37 24.79 -10 00 50.0 19.5 R 599 – Campo Imperatore-CINEOS MPS 138926
2005 08 01.87626 20 37 24.27 -10 00 54.0 19.2 R 599 – Campo Imperatore-CINEOS MPS 138926
2005 08 01.88619 20 37 23.73 -10 00 58.1 19.0 R 599 – Campo Imperatore-CINEOS MPS 138926
2005 08 01.89615 20 37 23.17 -10 01 02.1 19.0 R 599 – Campo Imperatore-CINEOS MPS 138926
2008 03 28.43986 14 46 10.05 -10 17 11.7 20.7 V G96 – Mt. Lemmon Survey MPS 244023
2008 03 28.44564 14 46 09.87 -10 17 10.3 20.1 V G96 – Mt. Lemmon Survey MPS 244023
2008 03 28.45138 14 46 09.76 -10 17 07.7 20.1 V G96 – Mt. Lemmon Survey MPS 244023
2008 03 28.45704 14 46 09.58 -10 17 05.7 20.2 V G96 – Mt. Lemmon Survey MPS 244023
2008 04 05.28243 14 42 18.97 -09 26 49.8 20.5 V 691 – Steward Observatory, Kitt Peak-Spacewatch MPS 245749
2008 04 05.30004 14 42 18.35 -09 26 42.5 20.5 V 691 – Steward Observatory, Kitt Peak-Spacewatch MPS 245749
2008 04 05.31769 14 42 17.66 -09 26 35.3 20.4 V 691 – Steward Observatory, Kitt Peak-Spacewatch MPS 245749
2008 04 29.30282 14 22 39.14 -06 29 05.1 19.8 V G96 – Mt. Lemmon Survey MPS 248129
2008 04 29.30789 14 22 38.82 -06 29 03.2 19.8 V G96 – Mt. Lemmon Survey MPS 248129
2008 04 29.31288 14 22 38.53 -06 29 00.9 19.7 V G96 – Mt. Lemmon Survey MPS 248129
2008 04 29.31784 14 22 38.24 -06 28 58.6 19.7 V G96 – Mt. Lemmon Survey MPS 248129
2009 10 24.31436 02 58 03.57 +09 09 27.4 18.3 V 703 – Catalina Sky Survey MPS 300669
2009 10 24.32484 02 58 03.03 +09 09 23.6 19.0 V 703 – Catalina Sky Survey MPS 300669
2009 10 24.33531 02 58 02.42 +09 09 19.2 19.6 V 703 – Catalina Sky Survey MPS 300669
2009 10 24.34576 02 58 01.84 +09 09 13.5 20.2 V 703 – Catalina Sky Survey MPS 300669
2009 11 09.25147 02 42 36.00 +07 23 39.6 19.3 V 703 – Catalina Sky Survey MPS 302171
2009 11 09.26014 02 42 35.46 +07 23 36.3 20.2 V 703 – Catalina Sky Survey MPS 302171
2009 11 09.26877 02 42 34.92 +07 23 32.3 20.3 V 703 – Catalina Sky Survey MPS 302171
2009 11 09.27741 02 42 34.38 +07 23 30.5 19.7 V 703 – Catalina Sky Survey MPS 302171
2011 01 28.29201 10 48 28.19 +03 42 01.3 21.5 V 691 – Steward Observatory, Kitt Peak-Spacewatch MPS 366993
2011 01 28.30979 10 48 27.59 +03 42 05.7 21.5 V 691 – Steward Observatory, Kitt Peak-Spacewatch MPS 366993
2011 01 28.32754 10 48 26.98 +03 42 10.5 21.2 V 691 – Steward Observatory, Kitt Peak-Spacewatch MPS 366993
2011 02 04.45952 10 43 59.718 +04 17 35.36 21.9 w F51 – Pan-STARRS 1, Haleakala MPS 379976
2011 02 04.47377 10 43 59.087 +04 17 40.56 22.0 w F51 – Pan-STARRS 1, Haleakala MPS 379976
2011 02 04.48824 10 43 58.454 +04 17 45.32 22.1 w F51 – Pan-STARRS 1, Haleakala MPS 379976
2011 02 25.26359 10 26 04.84 +06 42 15.0 20.4 V G96 – Mt. Lemmon Survey MPS 371426
2011 02 25.27104 10 26 04.38 +06 42 18.6 20.7 V G96 – Mt. Lemmon Survey MPS 371426
2011 02 25.27862 10 26 03.94 +06 42 22.4 20.5 V G96 – Mt. Lemmon Survey MPS 371426
2011 02 25.28619 10 26 03.51 +06 42 25.9 20.6 V G96 – Mt. Lemmon Survey MPS 371426
2011 03 06.23540 10 17 42.64 +07 52 33.2 20.4 V G96 – Mt. Lemmon Survey MPS 373421
2011 03 06.24123 10 17 42.28 +07 52 36.2 20.8 V G96 – Mt. Lemmon Survey MPS 373421
2011 03 06.24707 10 17 41.96 +07 52 39.0 20.7 V G96 – Mt. Lemmon Survey MPS 373421
2011 03 06.25298 10 17 41.64 +07 52 41.8 20.9 V G96 – Mt. Lemmon Survey MPS 373421
2013 12 30.36964 07 00 17.156 +13 36 59.40 20.9 w F51 – Pan-STARRS 1, Haleakala MPS 495051
2013 12 30.38487 07 00 16.125 +13 37 01.40 21.1 w F51 – Pan-STARRS 1, Haleakala MPS 495051
2013 12 30.40003 07 00 15.122 +13 37 03.18 21.3 w F51 – Pan-STARRS 1, Haleakala MPS 495051
2015 03 17.55802 14 45 34.447 -11 04 40.24 20.9 w F51 – Pan-STARRS 1, Haleakala MPS 591682
2015 03 17.57106 14 45 34.373 -11 04 36.75 21.0 w F51 – Pan-STARRS 1, Haleakala MPS 591682
2015 03 17.58410 14 45 34.289 -11 04 33.50 21.0 w F51 – Pan-STARRS 1, Haleakala MPS 591682
2015 03 17.59713 14 45 34.216 -11 04 29.98 20.8 w F51 – Pan-STARRS 1, Haleakala MPS 591682
2015 03 18.53116 14 45 30.184 -11 00 22.56 21.0 w F51 – Pan-STARRS 1, Haleakala MPS 591682
2015 03 18.54392 14 45 30.096 -11 00 19.16 20.8 w F51 – Pan-STARRS 1, Haleakala MPS 591682
2015 03 18.55664 14 45 29.987 -11 00 15.77 20.8 w F51 – Pan-STARRS 1, Haleakala MPS 591682
2015 03 18.56937 14 45 29.892 -11 00 12.29 20.9 w F51 – Pan-STARRS 1, Haleakala MPS 591682
2015 04 17.29236 14 30 31.02 -07 50 05.2 20.2 r G45 – Space Surveillance Telescope, Atom Site MPS 604421
2015 04 17.29890 14 30 30.69 -07 50 02.4 20.1 r G45 – Space Surveillance Telescope, Atom Site MPS 604421
2015 04 17.31089 14 30 30.03 -07 49 57.2 20.5 r G45 – Space Surveillance Telescope, Atom Site MPS 604421
2015 04 17.31695 14 30 29.74 -07 49 53.4 19.9 r G45 – Space Surveillance Telescope, Atom Site MPS 604421
2015 04 17.32511 14 30 29.30 -07 49 49.8 20.6 r G45 – Space Surveillance Telescope, Atom Site MPS 604421
2015 04 17.33108 14 30 28.97 -07 49 47.8 20.8 r G45 – Space Surveillance Telescope, Atom Site MPS 604421
2015 04 17.33718 14 30 28.67 -07 49 44.8 20.4 r G45 – Space Surveillance Telescope, Atom Site MPS 604421
2015 04 18.29679 14 29 39.60 -07 42 24.1 20.2 r G45 – Space Surveillance Telescope, Atom Site MPS 606170
2015 04 18.30248 14 29 39.32 -07 42 22.3 19.8 r G45 – Space Surveillance Telescope, Atom Site MPS 606170
2015 04 18.30834 14 29 38.97 -07 42 19.2 20.3 r G45 – Space Surveillance Telescope, Atom Site MPS 606170
2015 04 18.31363 14 29 38.74 -07 42 16.9 20.0 r G45 – Space Surveillance Telescope, Atom Site MPS 606170
2015 04 18.31549 14 29 38.61 -07 42 16.2 20.2 r G45 – Space Surveillance Telescope, Atom Site MPS 606170
2015 04 18.32172 14 29 38.29 -07 42 13.2 20.0 r G45 – Space Surveillance Telescope, Atom Site MPS 606170
2015 04 18.32748 14 29 37.97 -07 42 10.6 19.8 r G45 – Space Surveillance Telescope, Atom Site MPS 606170
2015 04 19.26749 14 28 49.22 -07 34 59.0 20.2 r G45 – Space Surveillance Telescope, Atom Site MPS 606170
2015 04 19.27345 14 28 48.91 -07 34 56.2 20.2 r G45 – Space Surveillance Telescope, Atom Site MPS 606170
2015 04 19.27881 14 28 48.62 -07 34 53.5 20.0 r G45 – Space Surveillance Telescope, Atom Site MPS 606170
2015 04 19.28528 14 28 48.24 -07 34 51.1 20.4 r G45 – Space Surveillance Telescope, Atom Site MPS 606170
2015 04 19.28784 14 28 48.09 -07 34 49.8 20.2 r G45 – Space Surveillance Telescope, Atom Site MPS 606170
2015 04 19.31316 14 28 46.72 -07 34 37.9 20.4 r G45 – Space Surveillance Telescope, Atom Site MPS 606170
2015 04 20.27075 14 27 56.29 -07 27 18.0 20.4 r G45 – Space Surveillance Telescope, Atom Site MPS 606170
2015 04 20.27648 14 27 56.01 -07 27 15.3 20.3 r G45 – Space Surveillance Telescope, Atom Site MPS 606170
2015 04 20.28301 14 27 55.63 -07 27 12.9 20.4 r G45 – Space Surveillance Telescope, Atom Site MPS 606170
2015 04 20.28934 14 27 55.29 -07 27 09.4 20.1 r G45 – Space Surveillance Telescope, Atom Site MPS 606170
